| time (UTC) | temp F | wind direction | speed MPH | gust MPH | rain 1hr in | rain 24hr in | rain mn in | humidity % | barometer mb |
| 20260506233517 | 62 | 23 | 1.0 | 3.0 | 0.00 | 0.00 | 0.00 | 76 | 1013.5 |
| 20260506232519 | 62 | 23 | 2.0 | 5.0 | 0.00 | 0.00 | 0.00 | 76 | 1013.5 |
| 20260506231519 | 62 | 45 | 2.0 | 6.0 | 0.00 | 0.00 | 0.00 | 75 | 1013.6 |
| 20260506230517 | 62 | 0 | 2.0 | 6.0 | 0.00 | 0.00 | 0.00 | 76 | 1013.6 |
| 20260506225519 | 62 | 45 | 2.0 | 5.0 | 0.00 | 0.00 | 0.00 | 77 | 1013.6 |
| 20260506224519 | 62 | 23 | 1.0 | 4.0 | 0.00 | 0.00 | 0.00 | 77 | 1013.5 |
| 20260506223517 | 62 | 45 | 2.0 | 5.0 | 0.00 | 0.00 | 0.00 | 77 | 1013.6 |
| 20260506222519 | 62 | 45 | 1.0 | 5.0 | 0.00 | 0.00 | 0.00 | 77 | 1013.8 |
| 20260506221519 | 62 | 23 | 1.0 | 4.0 | 0.00 | 0.00 | 0.00 | 77 | 1013.8 |
| 20260506220520 | 62 | 45 | 1.0 | 3.0 | 0.00 | 0.00 | 0.00 | 77 | 1013.9 |
| 20260506215539 | 62 | 0.0 | 2.0 | 0.00 | 0.00 | 0.00 | 77 | 1014.0 | |
| 20260506214517 | 63 | 23 | 1.0 | 4.0 | 0.00 | 0.00 | 0.00 | 77 | 1014.1 |
| 20260506213537 | 62 | 0 | 2.0 | 4.0 | 0.00 | 0.00 | 0.00 | 77 | 1014.1 |
| 20260506212519 | 62 | 0 | 1.0 | 3.0 | 0.00 | 0.00 | 0.00 | 77 | 1014.0 |
| 20260506211518 | 63 | 0 | 2.0 | 4.0 | 0.00 | 0.00 | 0.00 | 76 | 1014.1 |
| 20260506210517 | 63 | 23 | 2.0 | 5.0 | 0.00 | 0.00 | 0.00 | 76 | 1013.8 |
| 20260506205519 | 63 | 0 | 2.0 | 5.0 | 0.00 | 0.00 | 0.00 | 76 | 1013.8 |
| 20260506204519 | 64 | 0.0 | 4.0 | 0.00 | 0.00 | 0.00 | 76 | 1013.8 | |
| 20260506203517 | 64 | 23 | 1.0 | 3.0 | 0.00 | 0.00 | 0.00 | 75 | 1013.7 |
| 20260506202537 | 64 | 90 | 4.0 | 8.0 | 0.00 | 0.00 | 0.00 | 76 | 1013.6 |
| 20260506201519 | 64 | 68 | 4.0 | 10.0 | 0.00 | 0.00 | 0.00 | 76 | 1013.3 |
| 20260506200519 | 65 | 68 | 3.0 | 8.0 | 0.00 | 0.00 | 0.00 | 76 | 1013.3 |
| 20260506195518 | 65 | 68 | 2.0 | 6.0 | 0.00 | 0.00 | 0.00 | 76 | 1013.2 |
| 20260506194519 | 65 | 68 | 3.0 | 8.0 | 0.00 | 0.00 | 0.00 | 76 | 1012.9 |
| 20260506193539 | 65 | 68 | 5.0 | 14.0 | 0.00 | 0.00 | 0.00 | 76 | 1012.7 |
| 20260506192518 | 65 | 68 | 4.0 | 12.0 | 0.00 | 0.00 | 0.00 | 76 | 1012.8 |
| 20260506191517 | 65 | 225 | 5.0 | 11.0 | 0.00 | 0.00 | 0.00 | 76 | 1012.7 |
| 20260506190519 | 65 | 225 | 4.0 | 9.0 | 0.00 | 0.00 | 0.00 | 76 | 1012.6 |
| 20260506185520 | 65 | 68 | 4.0 | 12.0 | 0.00 | 0.00 | 0.00 | 75 | 1012.5 |
| 20260506184517 | 65 | 45 | 4.0 | 11.0 | 0.00 | 0.00 | 0.00 | 76 | 1012.5 |
| 20260506183517 | 65 | 225 | 5.0 | 11.0 | 0.00 | 0.00 | 0.00 | 75 | 1012.5 |
| 20260506182517 | 66 | 90 | 5.0 | 11.0 | 0.00 | 0.00 | 0.00 | 75 | 1012.4 |
| 20260506181517 | 66 | 68 | 5.0 | 13.0 | 0.00 | 0.00 | 0.00 | 75 | 1012.4 |
| 20260506180517 | 66 | 225 | 3.0 | 7.0 | 0.00 | 0.00 | 0.00 | 75 | 1012.4 |
| 20260506175517 | 66 | 68 | 6.0 | 13.0 | 0.00 | 0.00 | 0.00 | 74 | 1012.3 |
| 20260506174519 | 66 | 90 | 4.0 | 12.0 | 0.00 | 0.00 | 0.00 | 74 | 1012.2 |
| 20260506173520 | 67 | 90 | 4.0 | 11.0 | 0.00 | 0.00 | 0.00 | 74 | 1012.3 |
| 20260506172517 | 66 | 90 | 6.0 | 11.0 | 0.00 | 0.00 | 0.00 | 73 | 1012.3 |
| 20260506171517 | 67 | 68 | 7.0 | 16.0 | 0.00 | 0.00 | 0.00 | 73 | 1012.3 |
| 20260506170539 | 68 | 113 | 6.0 | 15.0 | 0.00 | 0.00 | 0.00 | 71 | 1012.3 |
| 20260506165518 | 68 | 225 | 4.0 | 9.0 | 0.00 | 0.00 | 0.00 | 71 | 1012.4 |
| 20260506164517 | 67 | 68 | 6.0 | 14.0 | 0.00 | 0.00 | 0.00 | 71 | 1012.2 |
| 20260506163537 | 68 | 90 | 5.0 | 14.0 | 0.00 | 0.00 | 0.00 | 69 | 1012.3 |
| 20260506162519 | 69 | 293 | 4.0 | 9.0 | 0.00 | 0.00 | 0.00 | 69 | 1012.3 |
| 20260506161537 | 68 | 90 | 6.0 | 14.0 | 0.00 | 0.00 | 0.00 | 69 | 1012.1 |
| 20260506160517 | 69 | 90 | 5.0 | 11.0 | 0.00 | 0.00 | 0.00 | 67 | 1012.2 |
| 20260506155519 | 68 | 90 | 5.0 | 11.0 | 0.00 | 0.00 | 0.00 | 69 | 1012.2 |
| 20260506154518 | 68 | 113 | 8.0 | 17.0 | 0.00 | 0.00 | 0.00 | 67 | 1012.2 |
| 20260506153517 | 69 | 68 | 8.0 | 17.0 | 0.00 | 0.00 | 0.00 | 66 | 1012.1 |
| 20260506152559 | 69 | 90 | 5.0 | 12.0 | 0.00 | 0.00 | 0.00 | 66 | 1012.1 |
| 20260506151517 | 69 | 68 | 4.0 | 9.0 | 0.00 | 0.00 | 0.00 | 68 | 1012.1 |
| 20260506150517 | 69 | 113 | 6.0 | 13.0 | 0.00 | 0.00 | 0.00 | 70 | 1012.2 |
| 20260506145537 | 69 | 135 | 5.0 | 15.0 | 0.00 | 0.00 | 0.00 | 70 | 1012.3 |
| 20260506144519 | 69 | 113 | 5.0 | 17.0 | 0.00 | 0.00 | 0.00 | 68 | 1012.4 |
| 20260506143538 | 70 | 225 | 5.0 | 14.0 | 0.00 | 0.00 | 0.00 | 69 | 1012.5 |
| 20260506142517 | 70 | 68 | 6.0 | 16.0 | 0.00 | 0.00 | 0.00 | 70 | 1012.4 |
| 20260506141637 | 70 | 68 | 6.0 | 18.0 | 0.00 | 0.00 | 0.00 | 69 | 1012.5 |
| 20260506140519 | 70 | 113 | 7.0 | 18.0 | 0.00 | 0.00 | 0.00 | 69 | 1012.5 |
| 20260506135519 | 70 | 68 | 7.0 | 14.0 | 0.00 | 0.00 | 0.00 | 69 | 1012.5 |
| 20260506134517 | 70 | 113 | 7.0 | 23.0 | 0.00 | 0.00 | 0.00 | 68 | 1012.6 |
| 20260506133517 | 70 | 90 | 6.0 | 14.0 | 0.00 | 0.00 | 0.00 | 69 | 1012.5 |
| 20260506132517 | 69 | 90 | 8.0 | 18.0 | 0.00 | 0.00 | 0.00 | 71 | 1012.7 |
| 20260506131538 | 70 | 68 | 7.0 | 15.0 | 0.00 | 0.00 | 0.00 | 70 | 1012.7 |
| 20260506130518 | 69 | 90 | 7.0 | 16.0 | 0.00 | 0.00 | 0.00 | 72 | 1012.9 |
| 20260506125517 | 70 | 68 | 7.0 | 21.0 | 0.00 | 0.00 | 0.00 | 72 | 1012.9 |
| 20260506124519 | 70 | 135 | 6.0 | 16.0 | 0.00 | 0.00 | 0.00 | 71 | 1013.0 |
| 20260506123558 | 70 | 68 | 6.0 | 17.0 | 0.00 | 0.00 | 0.00 | 71 | 1012.9 |
| 20260506122517 | 70 | 225 | 6.0 | 17.0 | 0.00 | 0.00 | 0.00 | 71 | 1012.9 |
| 20260506121519 | 69 | 68 | 9.0 | 17.0 | 0.00 | 0.00 | 0.00 | 72 | 1012.8 |
| 20260506120538 | 69 | 68 | 8.0 | 20.0 | 0.00 | 0.00 | 0.00 | 71 | 1013.0 |
| 20260506115518 | 69 | 180 | 8.0 | 19.0 | 0.00 | 0.00 | 0.00 | 71 | 1013.0 |
| 20260506114517 | 69 | 203 | 9.0 | 19.0 | 0.00 | 0.00 | 0.00 | 71 | 1013.0 |
| 20260506113518 | 69 | 90 | 9.0 | 18.0 | 0.00 | 0.00 | 0.00 | 71 | 1013.2 |
| 20260506112518 | 69 | 90 | 8.0 | 19.0 | 0.00 | 0.00 | 0.00 | 72 | 1013.1 |
| 20260506111519 | 70 | 90 | 6.0 | 15.0 | 0.00 | 0.00 | 0.00 | 72 | 1013.3 |
| 20260506110518 | 69 | 113 | 6.0 | 17.0 | 0.00 | 0.00 | 0.00 | 74 | 1013.4 |
| 20260506105537 | 69 | 90 | 6.0 | 18.0 | 0.00 | 0.00 | 0.00 | 73 | 1013.5 |
| 20260506104517 | 70 | 158 | 5.0 | 11.0 | 0.00 | 0.00 | 0.00 | 71 | 1013.3 |
| 20260506103517 | 71 | 113 | 5.0 | 10.0 | 0.00 | 0.00 | 0.00 | 71 | 1013.2 |
| 20260506102518 | 70 | 90 | 6.0 | 12.0 | 0.00 | 0.00 | 0.00 | 71 | 1013.3 |
| 20260506101517 | 70 | 90 | 6.0 | 19.0 | 0.00 | 0.00 | 0.00 | 70 | 1013.2 |
| 20260506100517 | 70 | 90 | 7.0 | 14.0 | 0.00 | 0.00 | 0.00 | 70 | 1013.2 |
| 20260506095538 | 71 | 113 | 5.0 | 11.0 | 0.00 | 0.00 | 0.00 | 70 | 1013.3 |
| 20260506094518 | 70 | 90 | 5.0 | 14.0 | 0.00 | 0.00 | 0.00 | 69 | 1013.3 |
| 20260506093518 | 71 | 135 | 5.0 | 10.0 | 0.00 | 0.00 | 0.00 | 67 | 1013.3 |
| 20260506092537 | 71 | 113 | 3.0 | 7.0 | 0.00 | 0.00 | 0.00 | 67 | 1013.1 |
| 20260506091517 | 70 | 90 | 2.0 | 7.0 | 0.00 | 0.00 | 0.00 | 66 | 1013.1 |
| 20260506090517 | 70 | 113 | 3.0 | 7.0 | 0.00 | 0.00 | 0.00 | 67 | 1012.9 |
| 20260506085518 | 70 | 90 | 3.0 | 8.0 | 0.00 | 0.00 | 0.00 | 66 | 1012.9 |
| 20260506084520 | 69 | 90 | 3.0 | 8.0 | 0.00 | 0.00 | 0.00 | 67 | 1012.9 |
| 20260506083538 | 69 | 68 | 3.0 | 7.0 | 0.00 | 0.00 | 0.00 | 67 | 1012.9 |
| 20260506082517 | 69 | 113 | 3.0 | 7.0 | 0.00 | 0.00 | 0.00 | 68 | 1012.8 |
| 20260506081517 | 69 | 45 | 1.0 | 4.0 | 0.00 | 0.00 | 0.00 | 70 | 1012.8 |
| 20260506080518 | 69 | 113 | 2.0 | 4.0 | 0.00 | 0.00 | 0.00 | 72 | 1012.8 |
| 20260506072538 | 68 | 0.0 | 1.0 | 0.00 | 0.00 | 0.00 | 74 | 1012.9 | |
| 20260506071518 | 68 | 0.0 | 1.0 | 0.00 | 0.00 | 0.00 | 75 | 1013.0 | |
| 20260506070517 | 68 | 0.0 | 1.0 | 0.00 | 0.00 | 0.00 | 76 | 1013.0 | |
| 20260506061518 | 65 | 0.0 | 0.0 | 0.00 | 0.00 | 0.00 | 82 | 1012.9 | |
| 20260506060518 | 64 | 0.0 | 0.0 | 0.00 | 0.00 | 0.00 | 84 | 1012.8 | |
| 20260506050518 | 60 | 0.0 | 0.0 | 0.00 | 0.00 | 0.00 | 87 | 1012.3 | |
| 20260506044517 | 60 | 0.0 | 0.0 | 0.00 | 0.00 | 0.00 | 86 | 1012.2 | |
| 20260506043517 | 60 | 0.0 | 0.0 | 0.00 | 0.00 | 0.00 | 85 | 1012.2 | |
| 20260506042517 | 60 | 0.0 | 1.0 | 0.00 | 0.00 | 0.00 | 84 | 1012.1 | |
| 20260506041518 | 60 | 0.0 | 1.0 | 0.00 | 0.00 | 0.00 | 82 | 1012.2 | |
| 20260506040518 | 60 | 0.0 | 1.0 | 0.00 | 0.00 | 0.00 | 82 | 1012.2 | |
| 20260506035518 | 60 | 0.0 | 0.0 | 0.00 | 0.00 | 0.00 | 82 | 1012.2 | |
| 20260506034518 | 60 | 0.0 | 1.0 | 0.00 | 0.00 | 0.00 | 82 | 1012.2 | |
| 20260506033537 | 60 | 0.0 | 0.0 | 0.00 | 0.00 | 0.00 | 81 | 1012.3 | |
| 20260506032518 | 60 | 0.0 | 0.0 | 0.00 | 0.00 | 0.00 | 81 | 1012.2 | |
| 20260506031518 | 60 | 0.0 | 1.0 | 0.00 | 0.00 | 0.00 | 82 | 1012.1 | |
| 20260506030517 | 60 | 0.0 | 0.0 | 0.00 | 0.00 | 0.00 | 82 | 1011.9 | |
| 20260506025517 | 60 | 0.0 | 0.0 | 0.00 | 0.00 | 0.00 | 82 | 1011.8 | |
| 20260506024519 | 60 | 0.0 | 0.0 | 0.00 | 0.00 | 0.00 | 83 | 1011.8 | |
| 20260506023538 | 60 | 0.0 | 0.0 | 0.00 | 0.00 | 0.00 | 84 | 1011.8 | |
| 20260506022517 | 60 | 270 | 1.0 | 2.0 | 0.00 | 0.00 | 0.00 | 84 | 1011.8 |
| 20260506021556 | 60 | 0.0 | 0.0 | 0.00 | 0.00 | 0.00 | 84 | 1011.8 | |
| 20260506020517 | 60 | 0.0 | 1.0 | 0.00 | 0.00 | 0.00 | 82 | 1011.8 | |
| 20260506015517 | 60 | 0.0 | 2.0 | 0.00 | 0.00 | 0.00 | 80 | 1011.8 | |
| 20260506014538 | 60 | 293 | 1.0 | 3.0 | 0.00 | 0.00 | 0.00 | 78 | 1011.9 |
| 20260506013518 | 60 | 0.0 | 0.0 | 0.00 | 0.00 | 0.00 | 76 | 1011.8 | |
| 20260506012518 | 62 | 0.0 | 3.0 | 0.00 | 0.00 | 0.00 | 75 | 1011.8 | |
| 20260506011538 | 61 | 293 | 1.0 | 3.0 | 0.00 | 0.00 | 0.00 | 73 | 1011.7 |
| 20260506010518 | 60 | 45 | 1.0 | 2.0 | 0.00 | 0.00 | 0.00 | 70 | 1011.7 |
| 20260506005517 | 60 | 0.0 | 1.0 | 0.00 | 0.00 | 0.00 | 72 | 1011.6 | |
| 20260506004518 | 60 | 270 | 1.0 | 2.0 | 0.00 | 0.00 | 0.00 | 69 | 1011.6 |
| 20260506003538 | 61 | 270 | 1.0 | 3.0 | 0.00 | 0.00 | 0.00 | 69 | 1011.7 |
| 20260506002518 | 61 | 0.0 | 2.0 | 0.00 | 0.00 | 0.00 | 69 | 1011.9 | |
| 20260506001537 | 61 | 270 | 1.0 | 2.0 | 0.00 | 0.00 | 0.00 | 68 | 1011.9 |
| 20260506000518 | 61 | 0.0 | 2.0 | 0.00 | 0.00 | 0.00 | 68 | 1012.0 | |
| 20260505235558 | 61 | 0.0 | 0.0 | 0.00 | 0.00 | 0.00 | 71 | 1012.1 | |
| 20260505234537 | 60 | 0.0 | 1.0 | 0.00 | 0.00 | 0.00 | 74 | 1012.2 |